CAPE
2530 2138 2805 3726 3847 3682 3091 2328 2406 3757 2783 2878 3709 2586 3985 4077 4064 3854 3792 4325 3271 3127 1759 1891 4219 4988 3372 5005 4340 3724 4434 2995 2737 2462 2764 4574 4216 3889 3040 2958 3304 3176 3168 2796 2576 2244 2063 1793 1648 1715 2137 2358 2330 2168 1543 932 558 108 313 398 425 30 0 0 0 0 0 1 1 2 2 5 8 20
3452 2613 2254 2335 3245 3479 2584 2171 1665 3769 4366 3323 3447 3936 4093 3718 3897 4137 3511 4020 3804 3218 2516 1502 4573 3483 4366 4746 5039 3138 3941 2732 3577 3151 3035 3648 4699 3960 3301 3206 3494 3318 3348 2968 2546 2380 2211 2144 2036 2038 2286 2385 2419 2202 1901 1502 1018 494 261 394 465 394 0 0 0 0 0 1 1 2 2 4 5 4
3678 3862 3260 3867 4056 3803 3075 3177 1699 3687 3771 2963 2947 3422 6145 4126 5553 4688 5176 3564 5363 3451 3114 2968 2584 1899 2793 2538 2074 2404 3268 4065 2787 2854 2964 3949 5044 3668 3256 3484 3727 3468 3407 3235 2787 2458 2340 2325 2333 2338 2393 2457 2490 2320 2074 1833 1429 861 477 316 416 485 0 0 0 0 0 1 2 3 4 4 3 3
3324 3798 3845 4277 3971 4110 3904 3494 3261 3226 2716 2518 3576 4278 3887 3776 3498 4739 4818 4424 4507 4398 3522 3219 2699 2174 3245 3017 3087 3933 3563 4818 3498 3490 3184 5014 4298 3271 3567 3686 3940 3620 3444 3360 3159 2671 2325 2353 2384 2440 2501 2545 2548 2424 2200 1951 1743 1281 818 490 379 220 488 0 0 0 1 1 2 4 4 3 2 2
3176 3798 3747 3602 3532 3817 3576 4037 3426 2832 3072 2956 2933 3025 3632 3182 3882 3993 4266 4361 4789 4760 4632 4338 3262 3092 3279 2737 2852 2983 3851 3379 4028 3429 3390 3849 4074 4185 4111 3958 3940 3603 3561 3485 3394 2767 2493 2258 2298 2299 2376 2483 2504 2442 2259 2056 1827 1586 1109 742 528 522 500 188 0 0 1 1 2 3 2 2 2 2
3122 3451 3972 3750 3434 3934 3522 3239 2566 2346 1467 1990 2088 2882 2754 3359 3764 4240 4260 4612 4098 4122 4381 4551 4672 3411 3009 3004 4847 4311 3909 3499 3700 3593 3655 3735 3548 4111 4556 3902 3760 3643 3687 3647 3336 2797 2655 2451 2359 2204 2145 2203 2208 2309 2128 2124 1919 1641 1346 951 682 528 558 362 0 0 0 1 2 2 2 2 2 3
3203 3138 3311 3362 3282 2486 2746 2994 2514 1878 2170 1944 2290 2062 2542 3356 2950 4704 3977 3930 4220 4206 4351 4314 3590 3349 3896 3496 3504 3648 3698 3795 3976 3622 3666 3599 2904 2949 3467 4728 3890 3631 3748 3589 3174 2775 2718 2737 2521 2487 2179 2034 1934 2020 1825 1829 2009 1830 1448 939 650 628 507 42 0 0 0 0 0 0 0 0 1 1
3023 2969 3221 2789 2631 2687 2844 3058 2803 3256 2670 2613 3164 2692 2955 2656 2379 2566 2298 3680 3920 4318 4222 4443 4130 3969 4204 4173 3843 3733 3632 3530 3844 4040 3289 3306 3526 4250 3589 3222 4182 3824 3556 3284 3027 2762 2767 2900 2825 2633 2328 2152 1983 1765 1686 1529 1881 1815 1561 1023 702 454 440 496 0 0 0 0 0 0 0 1 0 1
3320 3106 2842 2878 2871 2996 2969 2840 2708 2491 2714 2420 2092 2316 2573 2683 2820 2920 3584 3931 3623 3728 3958 4282 4645 5038 4730 4263 3973 3732 3471 4333 4464 4421 4267 3920 3204 4299 3867 3501 3834 3608 3235 3011 2839 2775 2786 2854 2898 2656 2415 2270 2142 1964 1803 1384 1791 1906 1545 1056 687 406 482 112 0 0 0 0 0 0 0 0 0 0
2796 2483 2764 2797 2997 2905 2807 2642 2647 2910 2973 3051 2762 2511 2804 3229 3914 4699 4488 4292 4393 4286 4177 4195 3936 3922 3682 3685 4379 4529 4377 3440 3264 4254 4266 3796 3528 4233 5124 3814 3154 3147 2861 2576 2556 2667 2656 2681 2793 2584 2556 2364 2162 2045 1942 1308 1596 1853 1618 1143 788 600 198 0 208 0 0 0 0 1 0 0 0 0
2264 2412 2278 2516 2718 2541 2624 2471 2570 2996 2999 2579 2488 3296 4204 3558 3376 3128 3284 3770 4558 4493 4475 4365 4493 4470 4384 3981 3675 4974 4857 4994 4943 4357 4167 4116 4439 4522 4990 4940 3770 2581 2830 3069 2940 2838 2642 2343 2438 2464 2510 2351 2184 2192 2015 1646 1149 1586 1670 1333 1026 698 490 212 0 0 0 0 0 0 0 0 0 0
1613 1726 1674 1203 1598 1986 2330 2346 2409 2797 3010 3157 2830 3117 3222 3229 3537 3463 3632 4037 4016 3916 3473 3943 3980 4139 4380 3491 2852 2310 1926 1889 2476 3018 3038 3912 4994 5671 5434 3905 3795 3761 4526 3437 2683 2572 2533 2494 2435 2234 2140 2106 2131 2212 2068 1800 1058 1141 1604 1327 1089 920 629 414 0 0 0 0 0 0 0 0 0 0
1571 1113 923 942 796 1573 2595 2199 2248 1868 2077 2162 2851 3185 3304 3895 4214 4336 4120 3945 3874 3743 3582 3252 3191 3127 3172 3464 3293 2985 2937 2893 2876 4174 4225 3633 4239 3857 3380 4590 4628 3662 2975 2858 2617 2448 2488 2618 2277 2000 1840 1914 2064 2180 2074 1896 1412 1165 1426 1285 1102 957 690 403 99 0 0 0 0 0 0 0 0 0
1300 819 573 420 1085 2304 3671 2971 1972 1687 1785 2906 2395 3097 3902 4283 4178 4336 4307 4258 4293 4340 4210 3752 3449 3241 3180 3011 2930 3186 3158 3274 3592 3656 3988 3331 3714 3663 4532 4536 3986 4419 3435 2596 3366 3999 2870 2669 2284 2314 2335 2208 2235 2359 2252 2102 1645 1485 1449 1136 926 1079 807 450 386 0 0 0 0 0 0 0 0 0
1276 864 857 690 1116 1940 2848 4383 2480 1710 1555 1466 1504 1745 2179 2782 3187 3701 4184 4153 4240 4280 4055 3854 3567 3028 2801 2739 2419 2385 2054 1486 1119 1502 2076 3597 4208 3464 3047 2882 3995 3874 3474 4821 3999 3650 4270 3542 3438 2881 2736 2524 2512 2613 2472 2003 1744 1669 1480 912 810 1059 976 578 349 18 0 0 0 0 0 0 0 0
1680 1179 743 532 333 463 1002 1593 3084 2017 1472 1320 1288 1160 1084 1007 1049 1291 2333 3266 3901 4019 3716 3637 3422 2975 2698 2830 2944 2742 1924 2102 2472 3461 2932 2642 2388 2460 2804 3033 2518 4978 3189 2858 3222 3485 3948 4355 3988 3910 3346 2438 2411 2279 2065 1886 1764 1691 1425 780 695 907 982 824 456 23 8 0 0 0 0 0 0 0
1728 1619 1226 919 457 118 967 1886 1447 2052 1528 908 793 866 850 819 721 306 160 458 1645 2236 3074 3061 2832 2874 3026 3056 3100 2750 2309 3528 3741 3530 3139 2637 2766 2660 2280 2248 2263 2745 4261 3738 2960 2495 2520 2582 2529 2251 2994 2682 2316 2214 2018 1804 1751 1650 1306 780 534 636 795 890 582 265 0 0 0 0 0 0 0 0
1502 1605 1612 1491 1193 938 785 874 1839 2499 2643 1823 1239 993 1082 1416 1476 1080 753 65 0 310 746 1047 1183 1431 2158 2496 2677 3196 3477 3337 3223 3332 3392 3275 2520 2227 2402 2834 3121 3573 3214 2758 2768 2635 2501 2347 2285 2530 1984 1866 1765 1831 1854 1706 1599 1452 1144 909 625 509 626 807 796 344 0 0 0 0 0 0 0 0
1411 1672 1712 1478 1374 1474 1666 1712 1341 1319 2482 3898 3477 2568 1803 1562 1621 1677 1655 1278 886 582 510 532 636 817 1127 1864 2492 2752 3097 3088 3308 3507 3629 3705 3538 3802 3669 3289 3316 3037 2834 2524 2325 2243 2303 2662 2745 2806 2031 1251 1155 1315 1437 1546 1503 1235 1089 969 765 591 556 666 775 622 0 0 0 0 0 0 0 0
1159 1279 1307 1631 2097 2138 2155 2093 1828 1628 1698 1566 2077 3252 3735 3741 3448 2990 2699 2192 1711 1261 1002 697 616 391 369 460 1044 1668 1862 2243 3098 3316 3297 3265 3036 2768 2782 2893 2929 2734 2632 2733 2814 2588 2337 2479 2274 2321 1515 1093 1237 1307 1558 1498 1246 1158 1105 946 771 612 599 562 580 608 276 0 0 0 0 0 0 0
1250 1258 1174 1252 944 955 1619 2235 2215 1852 1467 1501 1359 1307 1518 1642 1436 2026 2904 2863 2668 2352 2012 1627 1415 1201 1011 845 748 686 1052 1591 2061 2404 2653 3043 2982 2683 3130 3217 3112 2650 1703 1110 1233 1339 2046 3202 2522 2542 1680 1199 1444 1633 1584 1336 1242 1194 1090 994 766 702 632 478 0 0 492 0 0 0 0 0 0 0
1907 1874 1920 2097 1399 1122 988 804 936 1564 1685 1706 1834 1603 1330 1204 1245 1483 1701 1416 1734 2481 2463 2241 1873 1546 1331 1099 1003 1015 956 915 1065 1338 1556 1625 1518 1312 1047 907 899 830 728 630 607 660 778 1261 2654 2574 2632 1786 1542 1551 1473 1308 1234 1132 1042 913 855 751 655 418 0 0 564 430 0 0 0 0 0 0
2002 2017 2107 2158 2019 1741 1529 1081 906 960 1090 1658 2049 2045 1859 1475 1211 1079 1136 1479 1590 1431 1549 1896 2093 1996 1737 1526 1399 1334 1243 1154 1072 1164 1661 1829 1777 1648 1524 1239 1146 1069 980 724 759 695 1126 1076 979 779 1078 1429 1720 893 1047 1127 1048 969 971 905 838 765 637 356 0 0 493 656 250 0 0 0 0 0
2070 2117 2195 2196 1728 1580 1403 1228 1125 1110 1176 1333 2023 2263 2045 1762 1681 1606 1592 1715 1609 1542 1437 1866 2210 1542 1475 1530 1520 1462 1422 1398 1357 1240 1410 1680 1850 1775 1665 1557 1347 1216 1052 887 794 937 1208 1170 1474 1488 1213 1065 1637 756 827 933 951 920 864 838 830 739 671 320 0 0 0 604 618 0 0 0 0 0
1866 1901 2252 2266 2347 1993 1776 1545 1356 1159 1050 1073 1512 2115 2137 1921 1853 2195 2445 2233 2653 2812 2489 1993 1778 2932 2556 2286 2168 1936 1994 2153 2203 1906 1624 1672 1920 1844 1670 1448 1375 1210 1004 826 593 716 647 834 855 1386 1629 1211 1208 1002 747 694 819 937 931 878 827 787 679 199 0 0 0 0 671 339 0 0 0 0
2082 2151 2205 2431 2455 2172 2037 1914 1811 1701 1576 1446 1306 1488 1469 1677 1762 1721 2052 2273 2226 2147 1848 1740 1805 2083 2476 3249 3009 2764 2672 2605 2576 2576 2505 2148 1974 1924 1626 1572 1496 1210 1055 1030 658 1230 2579 3429 2690 2327 3128 2185 1900 1241 1416 940 1037 1078 1030 966 876 755 10 0 0 0 0 0 0 678 391 0 0 0
2162 2282 2350 2468 2378 2050 1776 1814 1798 1763 1694 1624 1592 1545 1467 1427 1436 1456 1473 1596 1776 1785 1686 1554 1466 1451 1793 2156 2294 2490 2662 2545 2501 2512 2734 2768 2597 2476 2146 1652 1445 1310 1232 1360 3019 3561 4172 3115 2851 2498 2648 2524 2086 1902 1521 1450 1290 988 1013 980 872 763 590 0 0 0 0 0 0 412 669 480 0 0
2112 2205 2462 2681 2133 2008 1877 1812 1735 1662 1626 1592 1583 1558 1535 1510 1484 1472 1503 1542 1551 1440 1222 1196 1191 1212 1293 1424 1608 1842 1987 1890 1765 1948 1926 2330 2938 2642 2391 2118 1708 1344 1437 1454 1521 2312 3082 3218 3420 3024 2439 2384 2276 2038 1843 1658 1643 1180 1044 964 864 692 340 0 0 0 0 0 0 0 0 632 429 100
1940 2008 1825 1708 1586 1725 1812 1828 1816 1756 1694 1666 1613 1572 1518 1419 1421 1439 1486 1562 1593 1565 1457 1234 1013 1074 1083 1141 1211 1426 1797 2137 2649 2943 2990 2671 2784 3124 2640 2395 2003 1600 1346 1342 1654 2388 3854 3934 3354 3251 3322 3107 2618 2364 2010 1817 1774 1312 1127 1006 853 617 257 0 0 0 0 0 0 0 0 0 0 0
1951 2022 2054 1967 1758 1563 1484 1485 1481 1487 1477 1468 1466 1417 1428 1414 1384 1378 1416 1476 1543 1608 1611 1529 1280 1030 1012 1060 1114 1252 1601 2050 2293 2640 2864 2812 2358 2174 2508 3098 2670 2536 2326 1886 1512 1702 1905 2296 3299 3535 3290 3167 3014 2621 2400 2241 2040 1735 1373 1204 1102 858 698 500 433 0 0 0 0 0 0 0 0 0
2054 2034 2141 2158 2048 1825 1699 1628 1480 1381 1383 1401 1394 1398 1365 1350 1360 1339 1333 1347 1419 1520 1633 1674 1652 1514 1208 1205 1314 1549 1738 1697 1853 2072 2101 2412 2708 2925 2648 2210 2328 2910 3006 2550 2159 1955 2054 2310 2638 3257 3099 2947 2890 2771 2673 2346 2038 1960 1584 1404 1212 999 744 450 287 0 0 0 0 0 0 0 0 0
2134 1909 1658 1607 1713 2110 2120 2042 1899 1626 1452 1393 1396 1362 1338 1304 1276 1248 1248 1262 1280 1411 1528 1666 1804 1816 1722 1396 1360 1650 1946 2191 2235 2313 2319 2313 2420 2357 2374 2699 2747 2576 2530 2634 2538 2397 2665 2690 2892 3018 3047 2858 2717 2757 2755 2482 2289 2110 2016 1578 1308 1102 917 774 563 413 336 99 0 0 0 0 0 0
2107 1982 2056 2148 2185 2222 2208 2177 2089 1941 1806 1675 1511 1391 1329 1306 1292 1285 1284 1260 1268 1310 1406 1569 1750 1880 1933 1876 1616 1130 1519 1841 2126 2644 2836 2712 2532 2588 2805 2717 2596 2637 2629 2612 2724 2912 3044 2949 2640 2938 3017 2946 2921 2795 2703 2633 2408 2238 2034 1853 1510 1290 983 794 649 527 3 0 0 0 0 0 0 0
1985 1868 1901 1980 2014 1813 1554 1380 1292 1320 1377 1452 1424 1326 1258 1219 1197 1166 1171 1176 1220 1278 1365 1547 1678 1806 1899 1937 1855 1586 1445 1621 1866 2238 2560 3072 3110 2932 3009 2906 2834 2804 2686 2659 2567 2653 2938 3086 3080 2931 3011 3202 3187 2913 2716 2417 2261 2150 1934 1680 1503 1406 1135 894 694 444 0 0 0 0 0 0 0 0
1973 1881 1757 1790 1824 1816 1626 1438 1505 1613 1656 1622 1504 1712 1662 1472 1485 1498 1506 1532 1573 1697 1761 1743 1696 1633 1572 1389 1571 1730 1719 1660 1809 2088 2320 2500 3308 3310 3024 2969 3000 2995 2977 2874 2762 2569 2658 3539 3352 3409 3100 2902 2643 2584 2784 2710 2402 2174 1904 1635 1533 1373 1141 762 589 196 0 0 0 0 0 0 0 0
1807 1803 1825 1848 1959 1988 1861 1649 1721 1857 1848 1779 1857 2004 1967 2141 2141 2028 2008 1919 1862 1906 1883 1837 1766 1710 1665 1559 1509 1489 1617 1748 1967 2176 2272 2526 2547 2689 3030 3070 2903 2796 2773 2726 2674 2671 2597 3572 2935 2829 2516 2399 2130 1965 1860 2046 2176 2033 1791 1532 1313 1142 961 772 596 375 178 0 0 0 0 0 0 0
1565 1716 1748 1782 1894 1997 1947 1653 2001 2273 2344 2059 1800 1957 1898 1768 1579 1843 2168 1958 1975 1962 1966 1929 1842 1775 1705 1670 1631 1586 1613 1612 1575 1748 1873 2087 2412 2488 2540 2556 2621 2686 2656 2651 2560 2539 2618 2790 2832 2508 2270 2032 1898 1708 1590 1461 1489 1583 1542 1344 1201 995 858 671 560 590 412 40 0 0 0 0 0 0
766 1006 1351 1710 1750 1774 1828 1617 1814 2083 2294 2407 2404 2153 1870 1752 1920 1922 2006 2257 2302 2094 2026 1972 1890 1771 1764 1720 1725 1768 1911 1836 1723 1652 1632 1691 1818 1917 2036 2216 2472 2532 2486 2481 2442 2459 2514 2555 2358 2310 2114 1921 1707 1548 1429 1288 1117 1110 1133 1175 1061 1006 755 778 702 650 520 331 1 0 0 0 152 381
360 626 696 1016 1342 1485 1608 1734 1671 1759 2067 2238 2388 2457 2190 2316 2236 2164 1970 2081 2229 2356 2414 2031 1868 1803 1712 1767 1973 2092 1934 1731 1598 1647 1622 1580 1562 1633 1710 1723 1759 1866 2109 2303 2413 2369 2373 2385 2325 2166 2026 1830 1684 1555 1391 1257 1111 1010 894 790 843 817 905 913 873 806 739 603 385 89 0 0 0 335
116 734 992 998 745 832 1027 1246 1418 1656 1757 1851 1973 2276 2564 2504 2574 2552 2561 2266 2212 2363 2767 2793 2264 1723 1520 1619 1883 1926 1803 1657 1615 1567 1554 1576 1550 1520 1570 1796 1866 1879 1836 1830 1891 2296 2393 2315 2223 2166 2046 1888 1725 1570 1402 1316 1952 2118 1343 1267 1144 1041 1014 946 978 1013 1053 965 721 499 343 219 260 274
231 93 561 980 1254 1329 1236 1155 1188 1344 1534 1678 1798 1766 2049 2494 2722 2750 2755 2772 2450 2696 2374 2130 1980 1737 1521 1723 1958 1976 1969 1904 1773 1626 1567 1493 1493 1538 1608 1643 1710 1857 1917 1935 1876 1844 2055 2264 2264 2126 2033 1920 1799 1632 1497 1328 1261 1250 1240 1257 1235 1164 1098 1145 1164 1090 1118 1010 769 602 485 410 376 324
668 655 631 760 904 1078 1303 1488 1420 1426 1639 1767 1865 1947 2102 2440 2746 2679 2555 2483 2424 1990 1714 1639 1618 1493 1404 1580 1716 1784 1873 1888 1786 1631 1603 1589 1549 1508 1415 1432 1506 1611 1768 1800 1843 1903 2004 2191 2174 2077 1960 1787 1830 1753 1642 1508 1312 1212 1195 1205 1202 1190 1156 1192 1226 1083 1044 952 742 592 521 422 354 374
1003 1228 1415 1439 1352 1450 1557 1599 1745 1989 2129 2257 2337 2366 2370 2366 2597 2725 2852 2545 2314 2086 2119 1894 1577 1621 1711 1581 1608 1603 1521 1548 1606 1578 1574 1594 1608 1626 1559 1361 1294 1371 1500 1547 1706 1802 1914 2133 2423 2205 1922 1808 1846 1751 1702 1604 1470 1340 1279 1251 1251 1262 1233 1217 1134 1074 1031 968 837 709 582 512 456 422
1134 1383 1695 1968 2192 2191 1975 1951 1913 2062 2152 2503 2570 2660 2664 2685 2730 2850 3232 2680 2632 2494 2299 2110 2128 2107 2082 1902 1750 1640 1496 1462 1488 1569 1640 1683 1637 1509 1461 1435 1399 1548 1609 1595 1533 1655 1811 1832 1982 2042 1894 1844 1787 1837 1789 1721 1629 1568 1467 1391 1370 1441 1447 1365 1257 1167 1092 956 842 706 583 495 419 363
1603 1776 1952 2273 2358 2345 2691 2830 2702 2627 2536 2670 2782 2992 2999 2842 2752 3332 2723 2723 2624 2412 2393 2326 2378 2358 2040 2001 2000 1988 1895 1671 1556 1630 1684 1704 1735 1758 1712 1644 1598 1600 1565 1571 1405 1496 1524 1591 1654 1677 1778 1791 1893 1839 1867 1833 1746 1612 1518 1492 1384 1349 1478 1384 1142 1259 1173 996 903 864 724 582 556 356
Wind_Speed
9 6 3 6 8 10 10 9 8 7 8 10 11 10 10 8 10 11 12 10 10 11 12 8 9 7 4 3 4 4 4 5 5 6 5 10 9 11 13 16 17 15 14 15 17 20 20 18 18 17 16 15 14 14 15 14 13 12 11 10 10 nan nan nan nan nan nan nan nan nan nan nan nan nan
8 7 6 6 6 7 6 5 6 6 4 5 6 7 7 7 8 9 9 9 8 9 11 11 7 7 5 2 4 6 8 5 4 6 7 9 13 16 16 18 19 18 17 17 19 21 22 21 20 19 18 17 16 15 14 14 13 12 11 10 10 10 nan nan nan nan nan nan nan nan nan nan nan nan
6 8 8 10 8 7 9 11 9 7 4 3 5 8 7 5 6 8 8 9 8 10 9 9 12 9 6 9 9 8 10 8 5 9 9 9 17 20 19 22 21 20 20 20 20 22 24 24 22 21 20 19 18 17 16 15 14 12 11 11 10 10 nan nan nan nan nan nan nan nan nan nan nan nan
3 3 4 3 7 9 10 8 10 10 9 9 8 6 4 5 4 5 7 7 8 7 7 9 10 9 10 10 9 12 10 9 9 11 9 10 16 17 20 23 25 22 22 22 22 24 25 26 24 23 22 20 19 18 18 16 15 14 12 11 11 10 10 nan nan nan nan nan nan nan nan nan nan nan
6 5 5 5 5 6 7 7 7 8 7 7 6 6 8 7 6 6 5 5 6 7 7 8 7 8 11 10 11 9 9 11 12 11 12 11 10 14 17 21 25 27 25 24 24 25 27 28 27 25 24 22 20 20 19 18 17 16 14 12 11 11 10 9 nan nan nan nan nan nan nan nan nan nan
6 5 4 4 5 4 4 6 5 5 7 7 6 7 6 7 6 8 8 6 7 8 9 8 10 11 9 9 13 14 13 11 12 12 13 12 10 15 19 18 23 27 28 27 27 27 27 29 28 26 25 24 23 21 21 20 19 18 16 13 12 12 11 9 nan nan nan nan nan nan nan nan nan nan
5 6 6 5 4 4 3 3 4 6 7 9 10 10 10 10 9 11 10 10 8 7 8 10 9 11 14 14 13 13 11 11 12 13 14 14 16 14 16 20 20 27 28 29 28 27 27 28 27 26 26 25 24 22 21 21 21 20 18 15 14 13 12 nan nan nan nan nan nan nan nan nan nan nan
5 5 5 5 5 4 5 5 5 6 6 6 6 7 7 8 8 8 9 9 9 9 8 9 9 9 9 11 10 10 10 10 11 13 14 15 15 16 15 17 21 24 27 28 28 27 27 27 27 26 27 27 25 23 22 22 22 21 20 17 15 14 13 10 nan nan nan nan nan nan nan nan nan nan
6 5 5 4 4 5 6 7 7 6 6 6 7 7 7 6 7 8 8 7 8 7 7 8 9 9 9 9 9 9 8 11 13 14 15 16 16 15 19 17 22 24 25 25 24 25 27 28 28 27 26 27 27 25 24 24 23 22 21 19 16 15 13 11 nan nan nan nan nan nan nan nan nan nan
7 7 6 6 6 6 5 4 5 6 6 7 6 6 8 10 10 10 8 8 8 8 8 9 8 9 7 8 10 11 11 10 11 13 13 15 15 16 18 19 23 20 20 22 23 25 25 27 30 30 29 29 29 27 25 24 24 23 23 22 19 17 15 nan 11 nan nan nan nan nan nan nan nan nan
6 5 6 6 5 5 5 4 5 6 6 7 7 8 9 9 9 8 8 8 8 8 7 6 6 5 5 6 6 9 9 9 10 9 10 11 13 13 15 17 15 18 18 17 24 26 28 29 29 31 31 31 31 30 26 24 24 23 22 22 22 20 17 14 nan nan nan nan nan nan nan nan nan nan
5 5 4 4 4 3 4 4 6 6 6 7 6 6 6 6 7 7 7 7 6 6 6 5 5 5 6 8 7 5 4 4 3 6 8 8 10 13 15 14 13 14 14 15 17 19 23 24 27 30 29 30 31 30 26 24 24 24 23 23 22 21 19 17 nan nan nan nan nan nan nan nan nan nan
6 7 7 5 3 4 4 4 3 2 3 6 7 6 6 7 7 7 6 5 5 5 5 4 5 4 3 5 5 3 3 2 2 7 9 9 12 14 12 14 15 14 12 13 15 21 19 20 22 24 24 26 28 27 26 25 26 24 23 23 22 21 20 18 nan nan nan nan nan nan nan nan nan nan
7 5 5 6 3 2 4 7 7 5 3 5 6 8 9 8 8 7 7 7 7 6 5 5 5 4 5 5 6 5 5 4 5 5 7 7 9 11 13 14 16 15 12 12 12 17 21 19 20 20 21 22 27 26 25 24 25 26 26 25 23 23 21 20 17 nan nan nan nan nan nan nan nan nan
9 8 8 7 6 6 6 7 7 6 5 5 4 3 4 7 9 9 8 8 8 6 5 6 6 5 5 5 5 5 3 3 3 3 7 9 12 12 11 10 15 15 14 13 14 15 18 16 17 22 20 20 24 26 27 28 31 29 28 27 26 25 23 21 18 nan nan nan nan nan nan nan nan nan
10 9 8 8 6 7 7 10 9 7 6 6 6 6 5 4 4 7 9 8 7 8 6 6 7 7 6 6 7 6 5 4 5 7 8 9 9 9 10 12 13 17 16 12 12 12 16 18 18 17 19 23 24 26 30 33 31 30 29 29 28 27 26 23 20 nan nan nan nan nan nan nan nan nan
10 11 10 8 8 8 6 7 9 11 9 8 8 8 7 6 6 6 6 8 9 8 7 7 7 9 8 6 7 9 8 9 9 10 9 10 10 11 11 12 13 13 17 14 12 11 13 17 16 16 17 24 24 27 32 34 32 31 30 30 30 30 29 26 22 20 nan nan nan nan nan nan nan nan
9 10 10 10 9 9 10 12 13 14 12 12 10 9 9 9 6 6 7 nan nan 10 10 8 8 9 11 10 9 10 11 10 10 11 11 13 13 12 13 13 13 14 15 14 12 11 12 15 15 14 18 22 24 26 31 36 34 32 32 31 29 31 30 28 25 22 nan nan nan nan nan nan nan nan
12 12 10 9 8 10 11 12 11 13 16 17 14 12 10 10 10 11 11 13 14 14 14 13 11 10 11 11 11 12 14 13 13 15 14 15 16 15 14 13 13 12 14 13 12 12 13 17 19 16 21 21 24 27 31 36 36 35 34 31 30 30 31 29 27 24 nan nan nan nan nan nan nan nan
12 13 13 14 13 13 13 11 10 13 16 17 17 17 15 14 13 13 13 14 15 16 16 16 14 14 13 13 14 15 16 17 18 17 17 17 17 15 14 13 14 15 18 20 19 15 13 17 21 21 26 25 25 26 28 32 36 35 35 32 31 30 30 30 29 27 24 nan nan nan nan nan nan nan
13 12 13 13 13 13 16 15 15 14 17 18 16 16 15 14 12 13 16 19 19 19 20 19 19 18 17 16 17 17 17 20 20 21 20 19 20 19 17 17 17 17 19 22 22 20 18 22 22 21 29 29 27 26 28 30 32 36 35 33 32 30 30 30 nan nan 26 nan nan nan nan nan nan nan
18 16 10 12 14 14 15 14 16 18 21 20 17 17 15 14 12 14 16 17 20 20 20 21 21 21 21 19 17 18 19 19 24 25 21 21 22 18 17 16 16 16 19 21 23 21 21 25 27 26 28 31 26 28 29 31 32 33 31 30 31 30 29 29 nan nan 27 25 nan nan nan nan nan nan
21 20 17 13 13 15 15 14 17 20 24 22 19 19 17 14 12 15 18 19 17 20 23 18 18 18 17 19 20 20 19 21 24 24 21 22 23 20 19 19 19 19 21 24 26 22 24 26 27 30 30 27 29 27 30 31 31 31 30 28 26 26 27 28 nan nan 28 27 24 nan nan nan nan nan
23 22 22 20 16 14 13 14 17 21 25 23 22 22 19 15 14 19 21 19 19 18 16 18 21 19 20 22 22 22 22 23 27 23 22 21 22 21 20 21 22 20 22 26 26 24 25 27 27 33 31 30 29 29 29 29 30 30 30 30 27 25 26 25 nan nan nan 29 26 nan nan nan nan nan
22 23 24 24 23 21 19 18 18 20 24 24 24 23 20 19 20 24 22 19 16 20 21 20 19 21 22 22 23 23 23 24 25 25 23 21 21 20 20 20 20 20 21 23 25 25 24 27 26 29 29 32 31 33 28 29 28 29 29 31 29 27 26 25 nan nan nan nan 28 25 nan nan nan nan
25 24 25 26 26 26 24 23 22 21 22 24 25 21 20 18 20 22 22 22 21 20 20 19 20 21 23 25 24 24 25 25 25 25 25 24 22 20 19 20 21 20 20 23 25 25 26 26 28 28 30 31 29 31 33 26 27 26 27 28 29 30 nan nan nan nan nan nan nan 27 25 nan nan nan
25 25 26 27 23 25 27 26 25 25 24 26 25 21 21 21 20 22 23 22 22 22 21 21 22 23 22 22 23 25 25 25 26 25 25 25 25 24 22 21 21 19 19 22 26 26 27 25 27 29 28 31 29 29 29 28 26 26 25 25 27 30 30 nan nan nan nan nan nan 32 28 23 nan nan
28 28 28 34 39 33 28 27 27 28 28 29 26 24 23 23 23 27 25 25 24 23 23 23 23 23 24 23 22 23 25 26 27 26 25 25 25 25 24 22 21 21 20 21 22 23 24 24 26 28 29 29 29 28 26 25 26 28 25 24 23 27 30 nan nan nan nan nan nan nan nan 26 24 nan
28 33 48 43 39 40 36 31 29 29 27 26 27 27 26 26 33 31 29 28 28 27 26 26 25 24 25 25 24 25 25 24 25 27 27 26 26 27 25 22 23 22 22 23 24 26 26 25 24 26 27 28 27 26 27 24 26 26 25 27 22 24 29 nan nan nan nan nan nan nan nan nan nan nan
24 27 29 31 30 29 34 37 35 34 32 29 26 24 26 32 34 32 32 32 31 29 27 27 26 25 26 25 25 24 25 24 24 25 25 25 24 23 25 25 20 20 22 23 24 26 26 24 23 24 24 24 25 23 24 24 22 26 27 26 25 25 27 32 30 nan nan nan nan nan nan nan nan nan
28 27 29 30 29 31 31 30 29 29 30 32 33 33 33 32 31 32 33 33 32 29 28 27 26 25 25 25 24 24 25 22 22 25 24 22 22 25 25 21 19 21 21 21 22 24 25 25 24 25 24 23 23 23 22 23 21 23 27 26 29 26 29 32 33 nan nan nan nan nan nan nan nan nan
29 28 29 28 29 29 27 27 28 27 27 29 32 34 35 34 31 29 29 30 29 28 28 26 25 24 24 22 21 21 20 19 21 24 24 22 21 23 22 20 18 18 18 19 21 23 25 25 25 25 25 25 23 22 23 22 21 23 25 27 26 25 30 33 33 33 34 nan nan nan nan nan nan nan
30 29 29 29 28 27 26 25 25 25 25 26 27 27 30 32 31 30 30 28 25 25 25 22 21 21 22 19 19 19 16 16 19 23 23 23 22 22 23 20 18 19 18 18 20 22 24 24 26 26 26 25 25 26 26 24 23 26 25 28 28 26 29 30 32 32 nan nan nan nan nan nan nan nan
33 29 26 25 25 24 24 24 24 23 24 25 26 27 27 28 28 27 26 23 21 22 21 19 19 19 20 19 19 19 16 16 18 21 22 22 24 23 22 20 19 19 20 19 21 24 25 25 26 26 26 27 27 28 29 28 26 28 29 28 30 28 28 32 31 32 nan nan nan nan nan nan nan nan
30 29 25 21 21 22 21 21 21 22 23 24 25 25 24 23 21 22 22 22 22 21 20 20 20 21 21 20 20 19 18 18 19 20 23 23 24 23 21 20 19 21 21 21 22 24 27 28 29 29 27 26 25 24 28 31 31 30 31 30 32 31 30 32 35 33 nan nan nan nan nan nan nan nan
26 28 26 23 21 22 20 18 19 20 21 23 23 22 20 20 22 21 19 23 26 25 24 24 25 24 23 22 21 21 20 21 21 21 22 24 24 23 22 21 21 22 24 23 24 27 29 32 33 31 28 27 25 21 23 31 36 34 33 31 33 34 33 33 34 36 36 nan nan nan nan nan nan nan
25 26 26 24 23 23 20 17 18 21 22 23 23 21 20 20 20 21 23 28 26 26 27 28 27 27 26 25 24 26 26 26 22 21 20 23 25 25 24 22 23 25 26 25 27 29 31 33 35 33 32 30 28 24 23 34 35 37 37 33 33 35 37 36 36 35 36 nan nan nan nan nan nan nan
25 25 23 21 22 22 20 18 19 21 23 24 23 21 19 19 21 22 23 25 25 26 26 29 30 32 32 31 29 31 34 28 21 20 22 25 26 24 24 23 23 26 26 27 29 31 32 32 35 36 35 33 30 27 24 31 34 31 39 40 37 37 40 41 37 36 37 38 nan nan nan nan 41 42
29 27 26 23 22 22 20 19 18 18 20 23 22 21 20 21 22 23 24 24 24 25 29 31 33 37 40 44 40 33 28 25 23 26 31 34 32 28 26 26 24 24 25 25 28 30 32 31 32 36 36 34 32 31 30 30 28 30 36 44 41 40 42 42 40 40 41 40 39 nan nan nan nan 44
31 31 28 27 26 26 24 23 21 20 20 21 21 21 22 22 23 25 25 26 26 28 31 36 40 49 53 43 33 29 29 30 30 30 34 35 34 30 29 31 30 29 26 21 22 27 28 28 32 35 35 33 31 32 32 31 30 33 36 37 41 42 41 43 41 43 41 43 46 46 45 47 47 48
35 nan 32 30 29 29 27 25 25 24 22 22 23 24 23 25 25 27 28 29 31 33 41 51 60 58 48 41 33 33 34 35 35 34 34 35 34 32 29 30 31 33 31 24 21 23 25 29 32 35 36 34 35 36 34 30 29 33 36 36 37 36 37 41 43 44 43 46 47 47 48 48 49 49
36 33 32 32 33 32 31 28 27 27 27 28 29 30 30 30 30 28 29 31 39 56 62 60 58 54 51 42 35 34 37 37 38 38 37 38 37 35 32 32 30 31 32 27 24 24 26 32 36 39 40 40 41 39 33 32 32 33 36 39 40 40 41 38 35 36 44 47 46 46 46 47 48 47
38 36 34 33 34 34 34 34 34 33 33 33 32 33 33 33 33 34 36 41 55 50 51 54 52 53 50 45 42 42 42 40 40 40 39 39 38 36 34 34 33 31 31 30 29 29 31 35 40 43 43 44 42 41 36 35 35 35 38 42 42 43 42 42 42 39 38 45 47 46 47 48 49 46
41 38 36 35 34 34 35 36 37 37 36 34 33 33 34 34 34 34 39 50 47 50 55 52 50 44 41 41 42 45 45 43 43 42 40 39 37 36 34 33 33 33 34 33 31 31 32 34 37 40 41 38 41 42 38 37 36 37 38 42 48 48 45 47 48 46 46 47 49 54 53 51 50 51
43 44 42 41 40 39 39 42 44 45 43 40 37 36 37 38 38 41 49 47 50 54 56 54 46 41 39 41 43 44 44 43 42 39 39 37 36 35 35 33 32 33 35 35 31 32 33 33 34 38 42 42 41 37 37 41 41 40 41 44 47 49 47 51 53 50 50 51 54 59 63 64 64 64
Wind_Direction
137 166 176 180 191 158 176 173 166 196 183 168 175 166 185 190 179 172 172 181 176 168 173 196 182 204 182 167 174 198 200 250 241 250 260 296 308 322 324 303 302 305 311 311 317 317 321 323 325 330 336 339 340 336 337 342 345 350 357 6 17 nan nan nan nan nan nan nan nan nan nan nan nan nan
145 161 188 195 212 174 178 185 166 227 172 175 152 155 209 201 185 178 175 169 171 171 174 184 202 183 175 190 199 209 233 250 253 253 260 279 306 319 320 304 303 306 309 315 318 317 317 318 320 325 329 334 332 331 333 336 337 340 349 355 3 14 nan nan nan nan nan nan nan nan nan nan nan nan
155 165 178 195 206 188 189 194 190 230 216 220 178 175 202 204 190 190 185 178 182 191 173 182 195 198 192 218 223 216 225 270 251 253 264 270 308 316 309 306 303 305 311 315 319 318 316 318 320 323 328 328 329 328 328 329 329 333 341 345 353 359 nan nan nan nan nan nan nan nan nan nan nan nan
165 156 175 198 191 195 209 202 199 205 216 205 204 216 226 233 213 208 195 179 172 190 179 187 194 179 213 218 237 239 236 270 292 255 269 274 296 298 302 310 311 311 315 318 320 320 319 318 320 323 323 325 327 326 324 324 324 328 334 338 343 347 353 nan nan nan nan nan nan nan nan nan nan nan
168 179 187 185 197 196 204 214 206 202 222 245 247 230 232 230 236 238 237 207 180 197 203 204 204 203 217 226 238 240 253 253 268 272 260 263 277 298 297 301 311 314 316 319 322 322 320 319 319 320 322 323 323 323 323 322 323 324 328 333 336 334 339 351 nan nan nan nan nan nan nan nan nan nan
161 192 210 193 190 210 201 204 203 215 201 228 255 272 258 261 255 271 266 251 229 206 215 214 222 217 223 235 256 256 253 261 271 273 275 277 283 279 294 291 298 310 315 319 323 322 320 318 319 321 323 322 324 328 324 323 325 322 323 325 326 323 327 338 nan nan nan nan nan nan nan nan nan nan
184 179 190 201 208 177 200 214 199 190 199 205 207 221 239 240 237 253 262 260 252 236 231 232 225 235 237 240 243 250 261 272 278 283 287 285 275 275 288 295 291 309 313 319 321 323 321 318 319 321 323 324 327 328 327 329 327 328 326 327 318 316 317 nan nan nan nan nan nan nan nan nan nan nan
179 184 197 192 193 199 193 215 214 209 213 211 211 216 233 250 242 234 243 255 258 256 244 248 240 241 242 251 251 256 261 262 270 275 280 287 291 287 282 285 295 304 314 317 320 324 323 323 323 325 326 326 327 331 332 334 337 336 334 331 326 316 313 315 nan nan nan nan nan nan nan nan nan nan
200 203 198 205 204 201 203 207 213 217 214 213 203 210 225 237 243 246 254 255 262 259 259 254 258 250 252 255 259 266 267 269 270 272 273 277 280 289 294 288 292 300 308 310 320 325 327 331 332 333 330 328 330 334 333 336 340 341 336 340 338 324 315 309 nan nan nan nan nan nan nan nan nan nan
201 196 205 199 201 210 222 218 223 224 218 228 232 228 221 221 229 242 250 259 255 250 249 249 241 251 250 256 269 271 272 268 271 273 276 277 283 285 289 295 303 305 304 303 311 323 332 341 342 340 337 335 336 337 338 336 337 339 338 341 340 336 332 nan 307 nan nan nan nan nan nan nan nan nan
202 203 201 211 212 207 210 211 219 223 230 229 223 223 231 237 239 233 231 237 245 254 259 263 268 260 264 275 266 271 273 277 287 289 280 282 291 300 301 301 306 318 325 328 323 321 329 338 340 340 340 339 338 339 341 339 336 337 340 341 342 342 341 335 nan nan nan nan nan nan nan nan nan nan
195 215 215 195 227 237 220 221 217 215 217 237 237 242 242 240 240 234 232 236 244 247 252 265 259 262 251 239 246 246 253 263 276 303 302 309 303 304 303 310 321 326 327 334 328 320 323 327 328 330 337 339 338 339 342 344 338 340 343 339 338 338 338 340 nan nan nan nan nan nan nan nan nan nan
220 206 206 218 204 248 322 342 309 270 248 226 232 238 240 241 247 249 252 252 243 241 245 239 247 246 242 255 252 250 270 291 298 286 292 296 297 295 299 309 312 315 329 337 330 329 334 327 325 320 328 331 331 334 346 345 344 341 339 338 336 332 334 336 nan nan nan nan nan nan nan nan nan nan
246 237 207 192 150 148 345 338 336 350 343 279 256 239 247 254 254 258 257 255 257 258 264 275 273 276 282 282 290 299 316 320 300 292 287 294 295 295 306 301 306 316 323 326 325 323 330 340 333 331 334 331 327 327 340 342 340 338 339 336 332 329 328 334 337 nan nan nan nan nan nan nan nan nan
230 231 237 229 196 190 210 267 328 330 336 329 320 302 283 277 269 267 273 280 284 286 293 290 291 297 300 312 315 315 302 322 316 288 268 276 278 288 293 299 305 320 334 330 327 327 324 330 337 337 345 335 327 332 342 343 335 333 337 335 331 329 328 328 333 nan nan nan nan nan nan nan nan nan
237 232 222 218 210 223 233 243 269 296 319 321 325 338 343 349 327 303 288 284 284 295 299 300 301 295 304 309 306 307 300 287 275 275 272 283 285 291 300 307 316 315 316 328 332 336 323 328 339 340 341 331 331 339 333 332 332 334 336 333 335 333 329 328 331 nan nan nan nan nan nan nan nan nan
238 242 243 230 214 202 214 252 260 272 284 310 335 335 342 346 343 343 348 330 317 295 294 302 302 308 311 317 319 315 312 299 296 286 287 288 294 301 310 318 314 315 312 317 322 328 324 321 325 339 340 325 327 321 326 329 332 337 337 333 336 331 330 332 334 335 nan nan nan nan nan nan nan nan
249 247 244 243 235 231 219 221 233 248 263 264 266 267 267 276 297 323 340 nan nan 332 323 318 320 326 319 331 322 313 297 293 297 298 300 296 296 298 310 309 309 305 304 312 311 314 319 322 324 330 314 317 313 320 325 328 334 339 336 334 337 332 330 333 337 338 nan nan nan nan nan nan nan nan
241 248 257 257 254 246 244 244 236 234 245 258 265 267 270 274 276 283 294 299 300 304 310 325 336 334 326 323 321 310 306 306 305 302 300 301 300 300 298 301 303 305 310 318 314 323 328 317 320 330 319 319 315 317 323 329 334 335 332 335 336 333 332 331 336 338 nan nan nan nan nan nan nan nan
242 241 242 244 247 251 253 258 264 254 248 247 253 262 267 269 275 284 297 313 312 311 311 316 323 324 334 334 320 314 311 306 302 301 304 301 299 301 305 311 309 311 311 316 315 315 323 319 321 320 313 316 315 317 318 327 331 329 332 336 336 336 333 334 334 335 336 nan nan nan nan nan nan nan
251 247 244 243 239 242 245 253 265 267 263 254 255 256 257 260 262 271 279 307 324 325 328 331 333 340 340 340 338 332 328 311 298 287 286 289 288 293 300 303 306 310 301 299 305 308 308 309 314 317 311 318 315 319 318 318 326 327 331 335 337 336 336 332 nan nan 333 nan nan nan nan nan nan nan
248 249 251 242 240 240 244 249 260 267 268 262 264 264 264 264 269 271 272 269 286 317 327 331 335 335 335 334 330 322 316 312 295 295 300 300 293 295 296 293 293 292 294 298 296 299 311 306 309 311 306 307 312 315 313 315 317 323 327 334 335 336 336 334 nan nan 333 334 nan nan nan nan nan nan
247 247 250 255 253 251 249 255 261 270 272 268 270 271 272 276 279 277 270 275 276 278 287 293 294 296 305 306 306 309 323 316 303 298 300 295 297 301 301 299 291 286 291 291 293 299 299 303 306 307 302 307 303 305 308 314 314 318 320 322 327 336 337 336 nan nan 335 332 331 nan nan nan nan nan
252 252 253 258 269 272 269 267 269 273 281 276 273 274 280 283 285 274 274 281 281 281 283 286 297 304 302 301 301 301 300 301 301 305 304 302 301 302 302 301 300 300 294 291 296 297 294 297 297 305 306 308 308 308 310 312 315 316 316 317 319 331 334 330 nan nan nan 332 333 nan nan nan nan nan
250 250 254 256 269 284 285 283 283 283 286 285 278 281 284 287 277 271 276 278 283 278 279 281 281 288 292 293 295 297 298 301 301 306 311 308 308 308 308 304 304 305 303 300 303 301 301 301 304 302 304 305 304 306 312 311 312 316 318 316 318 318 319 322 nan nan nan nan 332 331 nan nan nan nan
251 252 253 255 262 279 287 289 290 295 293 296 284 288 296 292 283 280 279 278 278 279 279 276 277 278 281 289 294 296 298 300 301 304 307 311 314 313 312 310 310 309 308 303 309 304 302 301 303 300 299 300 300 303 304 310 313 316 315 316 317 316 nan nan nan nan nan nan nan 324 326 nan nan nan
255 255 253 254 262 275 283 289 294 295 301 292 288 301 296 295 297 289 282 282 281 280 279 279 280 281 281 282 287 292 295 297 297 301 303 306 309 310 311 312 314 315 309 299 298 300 300 301 300 303 304 302 304 304 307 310 310 313 313 317 317 314 318 nan nan nan nan nan nan 325 327 318 nan nan
253 252 253 253 248 250 271 284 291 295 297 292 301 302 304 302 299 288 286 284 284 281 280 282 283 286 288 289 289 286 284 286 289 293 293 295 301 304 305 311 311 308 306 303 303 305 306 306 304 304 306 307 309 312 311 312 307 316 319 314 309 309 312 nan nan nan nan nan nan nan nan 311 306 nan
251 244 244 241 245 253 260 267 267 269 280 294 300 304 307 304 287 289 288 287 283 284 286 286 287 289 291 291 289 285 286 284 281 282 283 284 282 287 298 298 299 302 301 300 297 296 298 302 304 300 302 304 311 313 314 317 312 315 316 308 308 309 308 nan nan nan nan nan nan nan nan nan nan nan
233 228 232 234 239 247 256 260 264 270 275 284 292 296 293 282 283 288 287 286 287 289 289 289 291 290 286 288 288 288 287 287 290 286 286 286 289 289 286 287 290 291 294 297 301 301 302 302 301 302 305 307 311 315 315 315 319 315 317 317 313 298 303 305 312 nan nan nan nan nan nan nan nan nan
241 233 238 245 242 243 249 257 260 265 273 277 277 277 277 280 282 285 286 288 290 291 289 288 287 286 285 284 285 288 290 294 294 292 292 292 292 290 291 293 291 289 290 292 294 297 299 302 304 305 309 310 311 316 314 314 317 312 312 314 309 312 306 309 308 nan nan nan nan nan nan nan nan nan
247 247 245 244 246 247 248 255 258 260 265 271 274 275 278 278 281 285 289 289 288 287 286 284 283 281 282 284 285 283 287 290 290 291 294 298 298 296 294 295 301 297 291 291 290 290 291 292 296 300 306 307 312 309 306 312 315 311 305 311 314 310 301 309 307 308 309 nan nan nan nan nan nan nan
252 251 251 253 253 249 249 251 250 250 254 263 270 274 275 277 282 286 286 290 290 287 282 284 284 283 282 282 281 282 282 284 283 284 291 295 298 297 299 306 306 302 301 298 294 292 290 292 296 301 304 307 310 309 307 310 311 306 307 305 311 312 304 305 304 305 nan nan nan nan nan nan nan nan
257 259 255 257 256 254 257 259 258 254 256 258 261 264 271 275 278 284 287 288 284 281 284 285 284 283 281 279 279 278 280 276 278 282 288 288 291 295 300 306 309 307 304 303 299 296 296 298 298 301 303 303 303 308 310 310 306 302 303 305 308 313 307 303 302 302 nan nan nan nan nan nan nan nan
264 265 266 265 265 263 262 261 257 253 252 253 254 256 262 272 278 278 276 277 275 276 280 284 286 285 284 281 277 279 282 283 281 281 284 286 289 294 299 304 307 306 306 306 305 301 297 299 300 297 295 295 294 296 304 305 303 305 303 307 306 309 307 302 301 302 nan nan nan nan nan nan nan nan
264 265 262 260 262 263 261 258 248 241 236 239 244 248 251 254 260 267 267 266 270 276 280 283 284 285 285 281 279 281 281 277 274 275 281 288 293 296 298 304 304 303 302 303 303 300 299 299 301 303 303 300 300 303 304 312 314 306 308 308 305 304 303 301 299 299 301 nan nan nan nan nan nan nan
270 271 267 260 258 262 261 248 237 232 233 233 235 238 240 242 244 246 252 265 271 275 279 280 280 279 279 279 275 273 272 271 272 281 289 294 296 297 299 300 299 298 299 300 297 296 297 298 299 302 301 299 300 307 306 291 314 322 310 310 306 303 301 301 300 299 301 nan nan nan nan nan nan nan
271 271 272 265 258 258 258 249 238 237 240 242 241 240 241 241 243 248 251 256 265 269 272 273 275 275 273 271 268 263 259 264 282 297 297 290 285 282 284 284 285 289 294 297 298 297 296 297 297 298 298 300 301 303 299 297 296 309 321 313 309 306 300 301 304 304 300 300 nan nan nan nan 302 299
268 268 271 270 262 257 254 252 246 242 246 247 247 248 249 248 249 252 256 260 261 262 265 269 269 270 266 254 250 264 282 289 279 270 267 268 270 273 276 277 278 283 288 294 297 298 297 299 299 296 299 302 308 309 307 300 303 303 311 325 314 308 306 307 308 304 301 300 297 nan nan nan nan 289
273 270 267 267 266 260 252 248 248 246 244 247 248 247 249 254 258 260 262 263 265 265 264 265 264 260 259 272 280 277 272 271 271 270 270 272 274 276 278 280 283 288 291 292 289 291 295 297 296 296 300 307 306 299 290 292 290 291 297 314 326 314 306 303 305 304 302 300 296 296 297 293 296 292
269 nan 269 269 267 266 261 254 250 247 247 250 253 254 255 257 263 265 267 269 268 265 255 252 258 266 272 277 283 286 285 282 279 278 279 281 283 284 286 283 282 287 291 294 292 289 292 292 295 305 303 296 292 286 286 292 300 300 300 300 309 318 311 303 304 302 300 297 300 302 301 301 299 296
265 265 265 266 266 267 267 262 256 251 249 251 254 256 260 263 266 274 274 273 264 257 261 268 273 279 286 293 299 297 291 288 285 284 284 283 282 284 288 288 287 286 289 294 297 294 287 285 289 292 291 291 290 293 299 303 304 302 302 299 299 310 322 316 299 299 300 297 300 301 300 297 298 301
263 262 261 261 262 261 262 262 261 259 255 253 253 255 257 260 264 269 272 266 263 271 278 280 280 280 288 295 296 292 289 288 286 285 284 283 284 286 287 289 291 289 287 285 285 284 282 283 285 287 289 293 295 295 301 306 305 305 304 303 303 301 307 317 304 292 296 309 312 307 306 305 305 309
264 263 261 259 258 258 258 259 259 259 259 258 260 262 263 262 263 266 267 271 277 273 272 276 278 286 293 295 292 291 293 294 291 288 286 285 286 288 286 285 285 282 278 274 273 276 277 278 283 287 286 287 290 295 305 306 307 309 310 306 299 302 307 307 305 298 294 292 294 293 291 292 295 296
259 259 258 257 255 253 251 252 252 253 254 255 256 258 259 260 259 258 261 265 270 273 276 281 283 288 290 287 286 289 293 296 295 289 284 282 284 287 288 286 283 280 274 267 269 273 273 273 279 284 289 289 289 296 305 307 308 307 307 305 300 296 300 302 305 307 304 302 298 294 292 293 292 290